• In Uzbekistan
  • List of Countries
  • For 7 days
  • Water Temperature
  • Satellite Maps
  • Weather Map
  • Weather Widgets
  • user-avatar
    Login

    Hourly Weather Malanje

    Today, 3 December, Saturday

    Time Temperature Precipitation Wind Pressure Humidity
    00:00 +19°C° 0 mm 2 mps 665 mmHg 82%
    01:00 +20°C° 0 mm 1 mps 665 mmHg 81%
    02:00 +20°C° 0 mm 1 mps 664 mmHg 82%
    03:00 +19°C° 0 mm 2 mps 664 mmHg 82%
    04:00 +19°C° 0 mm 2 mps 664 mmHg 83%
    05:00 +20°C° 0.2 mm 1 mps 664 mmHg 84%
    06:00 +20°C° 0.2 mm 1 mps 665 mmHg 86%
    07:00 +20°C° 0.2 mm 1 mps 665 mmHg 87%
    08:00 +21°C° 0.5 mm 1 mps 665 mmHg 86%
    09:00 +21°C° 0.5 mm 2 mps 666 mmHg 85%
    10:00 +23°C° 0.5 mm 2 mps 666 mmHg 83%
    11:00 +24°C° 0.1 mm 2 mps 666 mmHg 77%
    12:00 +26°C° 0.1 mm 3 mps 665 mmHg 71%
    13:00 +27°C° 0.1 mm 3 mps 665 mmHg 65%
    14:00 +27°C° 0.2 mm 3 mps 665 mmHg 67%
    15:00 +27°C° 0.2 mm 3 mps 664 mmHg 69%
    16:00 +27°C° 0.2 mm 3 mps 663 mmHg 71%
    17:00 +25°C° 0.3 mm 3 mps 664 mmHg 77%
    18:00 +23°C° 0.3 mm 2 mps 664 mmHg 84%
    19:00 +21°C° 0.3 mm 2 mps 664 mmHg 90%
    20:00 +20°C° 0.7 mm 2 mps 664 mmHg 91%
    21:00 +20°C° 0.7 mm 2 mps 665 mmHg 93%
    22:00 +19°C° 0.7 mm 2 mps 665 mmHg 94%
    23:00 +19°C° 0.2 mm 2 mps 665 mmHg 95%

    Tomorrow, 4 December, Sunday

    Time Temperature Precipitation Wind Pressure Humidity
    00:00 +19°C° 0.2 mm 2 mps 665 mmHg 95%
    01:00 +18°C° 0.2 mm 2 mps 665 mmHg 96%
    02:00 +18°C° 0.3 mm 2 mps 665 mmHg 97%
    03:00 +18°C° 0.3 mm 2 mps 664 mmHg 97%
    04:00 +18°C° 0.3 mm 2 mps 664 mmHg 98%
    05:00 +19°C° 0.1 mm 2 mps 665 mmHg 97%
    06:00 +19°C° 0.1 mm 2 mps 665 mmHg 97%
    07:00 +20°C° 0.1 mm 2 mps 666 mmHg 96%
    08:00 +21°C° 0.1 mm 2 mps 666 mmHg 91%
    09:00 +23°C° 0.1 mm 2 mps 667 mmHg 86%
    10:00 +24°C° 0.1 mm 2 mps 667 mmHg 81%
    11:00 +25°C° 0.6 mm 2 mps 667 mmHg 80%
    12:00 +25°C° 0.6 mm 2 mps 666 mmHg 78%
    13:00 +26°C° 0.6 mm 2 mps 665 mmHg 77%
    14:00 +26°C° 0.5 mm 2 mps 665 mmHg 78%
    15:00 +25°C° 0.5 mm 2 mps 665 mmHg 80%
    16:00 +25°C° 0.5 mm 1 mps 664 mmHg 81%
    17:00 +24°C° 0.6 mm 2 mps 664 mmHg 86%
    18:00 +23°C° 0.6 mm 2 mps 664 mmHg 90%
    19:00 +21°C° 0.6 mm 2 mps 665 mmHg 94%
    20:00 +20°C° 0.4 mm 2 mps 665 mmHg 95%
    21:00 +20°C° 0.4 mm 2 mps 666 mmHg 95%
    22:00 +20°C° 0.4 mm 2 mps 666 mmHg 96%
    23:00 +20°C° 0.3 mm 2 mps 666 mmHg 97%

    Day after tomorrow, 5 December, Monday

    Time Temperature Precipitation Wind Pressure Humidity
    00:00 +19°C° 0.3 mm 2 mps 665 mmHg 97%
    01:00 +19°C° 0.3 mm 2 mps 665 mmHg 97%
    02:00 +19°C° 0.5 mm 2 mps 665 mmHg 98%
    03:00 +19°C° 0.5 mm 2 mps 665 mmHg 98%
    04:00 +19°C° 0.5 mm 1 mps 664 mmHg 98%
    05:00 +20°C° 0.1 mm 1 mps 665 mmHg 98%
    06:00 +20°C° 0.1 mm 1 mps 666 mmHg 97%
    07:00 +21°C° 0.1 mm 1 mps 666 mmHg 96%
    08:00 +21°C° 0.1 mm 2 mps 667 mmHg 90%
    09:00 +23°C° 0.1 mm 2 mps 667 mmHg 84%
    10:00 +25°C° 0.1 mm 2 mps 668 mmHg 78%
    11:00 +25°C° 0.3 mm 2 mps 667 mmHg 75%
    12:00 +26°C° 0.3 mm 2 mps 666 mmHg 71%
    13:00 +27°C° 0.3 mm 2 mps 666 mmHg 67%
    14:00 +27°C° 0.2 mm 1 mps 665 mmHg 69%
    15:00 +26°C° 0.2 mm 1 mps 665 mmHg 70%
    16:00 +26°C° 0.2 mm 1 mps 664 mmHg 71%
    17:00 +25°C° 0.7 mm 2 mps 665 mmHg 77%
    18:00 +23°C° 0.7 mm 2 mps 665 mmHg 82%
    19:00 +21°C° 0.7 mm 2 mps 665 mmHg 88%
    20:00 +20°C° 0.5 mm 2 mps 665 mmHg 91%
    21:00 +20°C° 0.5 mm 2 mps 666 mmHg 93%
    22:00 +19°C° 0.5 mm 2 mps 666 mmHg 96%
    23:00 +19°C° 0 mm 2 mps 665 mmHg 96%

    6 December, Tuesday

    Time Temperature Precipitation Wind Pressure Humidity
    00:00 +19°C° 0 mm 2 mps 665 mmHg 96%
    01:00 +20°C° 0 mm 1 mps 664 mmHg 96%
    02:00 +20°C° 0 mm 1 mps 664 mmHg 96%
    03:00 +19°C° 0 mm 1 mps 664 mmHg 96%
    04:00 +19°C° 0 mm 1 mps 664 mmHg 96%
    05:00 +20°C° 0.2 mm 1 mps 665 mmHg 94%
    06:00 +19°C° 0.2 mm 0 mps 666 mmHg 93%
    07:00 +19°C° 0.2 mm 0 mps 666 mmHg 92%
    08:00 +22°C° 0.1 mm 1 mps 666 mmHg 87%
    09:00 +23°C° 0.1 mm 1 mps 667 mmHg 82%
    10:00 +25°C° 0.1 mm 1 mps 667 mmHg 77%
    11:00 +26°C° 0 mm 2 mps 666 mmHg 71%
    12:00 +27°C° 0 mm 2 mps 666 mmHg 65%
    13:00 +28°C° 0 mm 3 mps 665 mmHg 59%
    14:00 +28°C° 0.1 mm 3 mps 665 mmHg 61%
    15:00 +28°C° 0.1 mm 3 mps 664 mmHg 63%
    16:00 +27°C° 0.1 mm 3 mps 664 mmHg 66%
    17:00 +25°C° 0.1 mm 3 mps 664 mmHg 74%
    18:00 +24°C° 0.1 mm 3 mps 664 mmHg 82%
    19:00 +21°C° 0.1 mm 2 mps 665 mmHg 90%
    20:00 +20°C° 0.2 mm 2 mps 665 mmHg 92%
    21:00 +20°C° 0.2 mm 2 mps 665 mmHg 93%
    22:00 +19°C° 0.2 mm 2 mps 666 mmHg 95%
    23:00 +19°C° 0 mm 2 mps 665 mmHg 95%

    7 December, Wednesday

    Time Temperature Precipitation Wind Pressure Humidity
    00:00 +18°C° 0 mm 2 mps 665 mmHg 96%
    01:00 +18°C° 0 mm 2 mps 664 mmHg 96%
    02:00 +18°C° 0 mm 2 mps 664 mmHg 96%
    03:00 +18°C° 0 mm 2 mps 664 mmHg 96%
    04:00 +17°C° 0 mm 2 mps 664 mmHg 96%
    05:00 +18°C° 0 mm 2 mps 664 mmHg 95%
    06:00 +19°C° 0 mm 2 mps 665 mmHg 94%
    07:00 +20°C° 0 mm 2 mps 666 mmHg 92%
    08:00 +21°C° 0 mm 3 mps 666 mmHg 85%
    09:00 +24°C° 0 mm 3 mps 666 mmHg 77%
    10:00 +26°C° 0 mm 4 mps 666 mmHg 69%
    11:00 +27°C° 0.1 mm 4 mps 666 mmHg 67%
    12:00 +28°C° 0.1 mm 4 mps 665 mmHg 65%
    13:00 +28°C° 0.1 mm 4 mps 664 mmHg 64%
    14:00 +28°C° 0.4 mm 4 mps 664 mmHg 67%
    15:00 +27°C° 0.4 mm 4 mps 663 mmHg 71%
    16:00 +27°C° 0.4 mm 4 mps 663 mmHg 75%
    17:00 +25°C° 0.2 mm 3 mps 663 mmHg 81%
    18:00 +24°C° 0.2 mm 3 mps 663 mmHg 87%
    19:00 +21°C° 0.2 mm 3 mps 664 mmHg 93%
    20:00 +20°C° 0.5 mm 3 mps 664 mmHg 94%
    21:00 +20°C° 0.5 mm 3 mps 664 mmHg 95%
    22:00 +19°C° 0.5 mm 3 mps 665 mmHg 96%
    23:00 +19°C° 0.4 mm 3 mps 664 mmHg 97%

    8 December, Thursday

    Time Temperature Precipitation Wind Pressure Humidity
    00:00 +19°C° 0.4 mm 3 mps 664 mmHg 97%
    01:00 +19°C° 0.4 mm 3 mps 664 mmHg 98%
    02:00 +18°C° 0.1 mm 3 mps 664 mmHg 98%
    03:00 +18°C° 0.1 mm 3 mps 664 mmHg 98%
    04:00 +18°C° 0.1 mm 2 mps 664 mmHg 98%
    05:00 +18°C° 0 mm 3 mps 664 mmHg 97%
    06:00 +18°C° 0 mm 3 mps 665 mmHg 96%
    07:00 +19°C° 0 mm 3 mps 665 mmHg 94%
    08:00 +20°C° 0 mm 3 mps 665 mmHg 87%
    09:00 +22°C° 0 mm 3 mps 666 mmHg 79%
    10:00 +25°C° 0 mm 3 mps 666 mmHg 71%
    11:00 +26°C° 0.1 mm 3 mps 665 mmHg 68%
    12:00 +27°C° 0.1 mm 3 mps 665 mmHg 66%
    13:00 +28°C° 0.1 mm 3 mps 664 mmHg 63%
    14:00 +28°C° 0.3 mm 3 mps 664 mmHg 67%
    15:00 +27°C° 0.3 mm 3 mps 664 mmHg 70%
    16:00 +27°C° 0.3 mm 3 mps 663 mmHg 74%
    17:00 +25°C° 0.9 mm 3 mps 663 mmHg 80%
    18:00 +22°C° 0.9 mm 3 mps 664 mmHg 87%
    19:00 +21°C° 0.9 mm 3 mps 664 mmHg 93%
    20:00 +20°C° 1.5 mm 3 mps 664 mmHg 94%
    21:00 +20°C° 1.5 mm 3 mps 665 mmHg 95%
    22:00 +19°C° 1.5 mm 3 mps 665 mmHg 96%
    23:00 +19°C° 0.2 mm 3 mps 665 mmHg 97%
    Show more